Year,Month,Day,Hour,Minute,Value (Times are PST for temperature in C)
2009,10,26,11,07,8.30
2009,10,26,11,08,8.30
2009,10,26,11,09,8.40
2009,10,26,11,10,8.40
2009,10,26,11,11,8.40
2009,10,26,11,12,8.40
2009,10,26,11,13,8.50
2009,10,26,11,14,8.50
2009,10,26,11,15,8.50
2009,10,26,11,16,8.60
2009,10,26,11,17,8.60
2009,10,26,11,18,8.60
2009,10,26,11,19,8.60
2009,10,26,11,20,8.60
2009,10,26,11,21,8.70
2009,10,26,11,22,8.70
2009,10,26,11,23,8.70
2009,10,26,11,24,8.70
2009,10,26,11,25,8.80
2009,10,26,11,26,8.90
2009,10,26,11,27,9.00
2009,10,26,11,28,9.00
2009,10,26,11,29,9.10
2009,10,26,11,30,9.20
2009,10,26,11,31,9.30
2009,10,26,11,32,9.30
2009,10,26,11,33,9.30
2009,10,26,11,34,9.40
2009,10,26,11,35,9.40
2009,10,26,11,36,9.40
2009,10,26,11,37,9.40
2009,10,26,11,38,9.40
2009,10,26,11,39,9.50
2009,10,26,11,40,9.50
2009,10,26,11,41,9.50
2009,10,26,11,42,9.60
2009,10,26,11,43,9.60
2009,10,26,11,44,9.60
2009,10,26,11,45,9.70
2009,10,26,11,46,9.70
2009,10,26,11,47,9.80
2009,10,26,11,48,9.80
2009,10,26,11,49,9.80
2009,10,26,11,50,9.80
2009,10,26,11,51,9.80
2009,10,26,11,52,9.80
2009,10,26,11,53,9.80
2009,10,26,11,54,9.80
2009,10,26,11,55,9.80
2009,10,26,11,56,9.80
2009,10,26,11,57,9.80
2009,10,26,11,58,9.80
2009,10,26,11,59,9.80
2009,10,26,12,00,9.80
2009,10,26,12,01,9.80
2009,10,26,12,02,9.80
2009,10,26,12,03,9.90
2009,10,26,12,04,9.90
2009,10,26,12,05,9.90
2009,10,26,12,06,9.90
2009,10,26,12,07,9.90
2009,10,26,12,08,9.90
2009,10,26,12,09,9.90
2009,10,26,12,10,10.00
2009,10,26,12,11,10.00
2009,10,26,12,12,10.00
2009,10,26,12,13,10.00
2009,10,26,12,14,10.10
2009,10,26,12,15,10.10
2009,10,26,12,16,10.00
2009,10,26,12,17,10.00
2009,10,26,12,18,10.00
2009,10,26,12,19,10.00
2009,10,26,12,20,10.10
2009,10,26,12,21,10.10
2009,10,26,12,22,10.20
2009,10,26,12,23,10.30
2009,10,26,12,24,10.30
2009,10,26,12,25,10.30
2009,10,26,12,26,10.30
2009,10,26,12,27,10.30
2009,10,26,12,28,10.40
2009,10,26,12,29,10.40
2009,10,26,12,30,10.40
2009,10,26,12,31,10.50
2009,10,26,12,32,10.50
2009,10,26,12,33,10.50
2009,10,26,12,34,10.50
2009,10,26,12,35,10.60
2009,10,26,12,36,10.60
2009,10,26,12,37,10.60
2009,10,26,12,38,10.60
2009,10,26,12,39,10.70
2009,10,26,12,40,10.80
2009,10,26,12,41,10.80
2009,10,26,12,42,10.90
2009,10,26,12,43,10.90
2009,10,26,12,44,11.00
2009,10,26,12,45,11.10
2009,10,26,12,46,11.20
2009,10,26,12,47,11.30
2009,10,26,12,48,11.40
2009,10,26,12,49,11.50
2009,10,26,12,50,11.50
2009,10,26,12,51,11.50
2009,10,26,12,52,11.50
2009,10,26,12,53,11.40
2009,10,26,12,54,11.40
2009,10,26,12,55,11.40
2009,10,26,12,56,11.40
2009,10,26,12,57,11.40
2009,10,26,12,58,11.30
2009,10,26,12,59,11.30
2009,10,26,13,00,11.30
2009,10,26,13,01,11.30
2009,10,26,13,02,11.30
2009,10,26,13,03,11.40
2009,10,26,13,04,11.50
2009,10,26,13,05,11.50
2009,10,26,13,06,11.50
2009,10,26,13,07,11.60
2009,10,26,13,08,11.60
2009,10,26,13,09,11.60
2009,10,26,13,10,11.60
2009,10,26,13,11,11.60
2009,10,26,13,12,11.60
2009,10,26,13,13,11.60
2009,10,26,13,14,11.60
2009,10,26,13,15,11.70
2009,10,26,13,16,11.70
2009,10,26,13,17,11.70
2009,10,26,13,18,11.70
2009,10,26,13,19,11.70
2009,10,26,13,20,11.70
2009,10,26,13,21,11.70
2009,10,26,13,22,11.70
2009,10,26,13,23,11.70
2009,10,26,13,24,11.80
2009,10,26,13,25,11.90
2009,10,26,13,26,11.90
2009,10,26,13,27,12.00
2009,10,26,13,28,12.00
2009,10,26,13,29,12.10
2009,10,26,13,30,12.10
2009,10,26,13,31,12.10
2009,10,26,13,32,12.20
2009,10,26,13,33,12.20
2009,10,26,13,34,12.30
2009,10,26,13,35,12.30
2009,10,26,13,36,12.30
2009,10,26,13,37,12.30
2009,10,26,13,38,12.30
2009,10,26,13,39,12.30
2009,10,26,13,40,12.30
2009,10,26,13,41,12.30
2009,10,26,13,42,12.30
2009,10,26,13,43,12.30
2009,10,26,13,44,12.40
2009,10,26,13,45,12.40
2009,10,26,13,46,12.30
2009,10,26,13,47,12.30
2009,10,26,13,48,12.20
2009,10,26,13,49,12.10
2009,10,26,13,50,12.10
2009,10,26,13,51,12.00
2009,10,26,13,52,12.00
2009,10,26,13,53,11.90
2009,10,26,13,54,11.90
2009,10,26,13,55,11.80
2009,10,26,13,56,11.80
2009,10,26,13,57,11.80
2009,10,26,13,58,11.80
2009,10,26,13,59,11.80
2009,10,26,14,00,11.80
2009,10,26,14,01,11.80
2009,10,26,14,02,11.80
2009,10,26,14,03,11.80
2009,10,26,14,04,11.90
2009,10,26,14,05,11.90
2009,10,26,14,06,12.00
2009,10,26,14,07,12.00
2009,10,26,14,08,12.10
2009,10,26,14,09,12.20
2009,10,26,14,10,12.20
2009,10,26,14,11,12.20
2009,10,26,14,12,12.20
2009,10,26,14,13,12.20
2009,10,26,14,14,12.20
2009,10,26,14,15,12.20
2009,10,26,14,16,12.20
2009,10,26,14,17,12.10
2009,10,26,14,18,12.10
2009,10,26,14,19,12.10
2009,10,26,14,20,12.10
2009,10,26,14,21,12.10
2009,10,26,14,22,12.20
2009,10,26,14,23,12.20
2009,10,26,14,24,12.30
2009,10,26,14,25,12.30
2009,10,26,14,26,12.20
2009,10,26,14,27,12.20
2009,10,26,14,28,12.20
2009,10,26,14,29,12.20
2009,10,26,14,30,12.20
2009,10,26,14,31,12.20
2009,10,26,14,32,12.10
2009,10,26,14,33,12.00
2009,10,26,14,34,11.90
2009,10,26,14,35,11.90
2009,10,26,14,36,11.80
2009,10,26,14,37,11.80
2009,10,26,14,38,11.80
2009,10,26,14,39,11.80
2009,10,26,14,40,11.80
2009,10,26,14,41,11.80
2009,10,26,14,42,11.80
2009,10,26,14,43,11.70
2009,10,26,14,44,11.70
2009,10,26,14,45,11.60
2009,10,26,14,46,11.50
2009,10,26,14,47,11.40
2009,10,26,14,48,11.30
2009,10,26,14,49,11.20
2009,10,26,14,50,11.20
2009,10,26,14,51,11.20
2009,10,26,14,52,11.20
2009,10,26,14,53,11.20
2009,10,26,14,54,11.10
2009,10,26,14,55,11.20
2009,10,26,14,56,11.20
2009,10,26,14,57,11.20
2009,10,26,14,58,11.20
2009,10,26,14,59,11.20
2009,10,26,15,00,11.10
2009,10,26,15,01,11.10
2009,10,26,15,02,11.10
2009,10,26,15,03,11.00
2009,10,26,15,04,11.00
2009,10,26,15,05,11.00
2009,10,26,15,06,10.90
2009,10,26,15,07,10.90
2009,10,26,15,08,10.90
2009,10,26,15,09,10.90
2009,10,26,15,10,11.00
2009,10,26,15,11,11.00
2009,10,26,15,12,11.00
2009,10,26,15,13,11.00
2009,10,26,15,14,11.10
2009,10,26,15,15,11.10
2009,10,26,15,16,11.20
2009,10,26,15,17,11.20
2009,10,26,15,18,11.20
2009,10,26,15,19,11.30
2009,10,26,15,20,11.30
2009,10,26,15,21,11.30
2009,10,26,15,22,11.30
2009,10,26,15,23,11.30
2009,10,26,15,24,11.30
2009,10,26,15,25,11.30
2009,10,26,15,26,11.30
2009,10,26,15,27,11.20
2009,10,26,15,28,11.20
2009,10,26,15,29,11.20
2009,10,26,15,30,11.20
2009,10,26,15,31,11.30
2009,10,26,15,32,11.20
2009,10,26,15,33,11.20
2009,10,26,15,34,11.20
2009,10,26,15,35,11.20
2009,10,26,15,36,11.20
2009,10,26,15,37,11.20
2009,10,26,15,38,11.20
2009,10,26,15,39,11.20
2009,10,26,15,40,11.20
2009,10,26,15,41,11.20
2009,10,26,15,42,11.30
2009,10,26,15,43,11.30
2009,10,26,15,44,11.30
2009,10,26,15,45,11.30
2009,10,26,15,46,11.40
2009,10,26,15,47,11.40
2009,10,26,15,48,11.40
2009,10,26,15,49,11.40
2009,10,26,15,50,11.40
2009,10,26,15,51,11.30
2009,10,26,15,52,11.30
2009,10,26,15,53,11.20
2009,10,26,15,54,11.20
2009,10,26,15,55,11.20
2009,10,26,15,56,11.10
2009,10,26,15,57,11.10
2009,10,26,15,58,11.10
2009,10,26,15,59,11.10
2009,10,26,16,00,11.00
2009,10,26,16,01,11.00
2009,10,26,16,02,11.00
2009,10,26,16,03,10.90
2009,10,26,16,04,10.80
2009,10,26,16,05,10.80
2009,10,26,16,06,10.80
2009,10,26,16,07,10.80
2009,10,26,16,08,10.80
2009,10,26,16,09,10.80
2009,10,26,16,10,10.80
2009,10,26,16,11,10.80
2009,10,26,16,12,10.80
2009,10,26,16,13,10.80
2009,10,26,16,14,10.80
2009,10,26,16,15,10.80
2009,10,26,16,16,10.80
2009,10,26,16,17,10.80
2009,10,26,16,18,10.80
